Find Local Weather

World > North America > United States > Montana

Columbia Falls, Montana Regional Weather

Lat: 48.37N, Lon: 114.18W
Wx Zone: MTZ003
Feedback
Expires:201804211800;;290808
ASUS45 KTFX 211710
RWRMT 
MONTANA REGIONAL WEATHER ROUNDUP
NATIONAL WEATHER SERVICE GREAT FALLS MT
1100 AM MDT SAT APR 21 2018

NOTE: "FAIR" INDICATES FEW OR NO CLOUDS BELOW 12000 FEET WITH NO
SIGNIFICANT WEATHER AND/OR OBSTRUCTIONS TO VISIBILITY.


MTZ001>007-043-211800-
WEST OF THE DIVIDE
  
CITY           SKY/WX    TMP DP  RH WIND       PRES   REMARKS
KALISPELL      LGT RAIN  48  39  71 S14       30.07S                  
MISSOULA       CLOUDY    45  33  63 W7        30.15R                  
BUTTE          FAIR      54  25  32 CALM      30.11F                  
MULLAN PASS    MIX PCPN  33  27  78 SW10G26   30.11R WCI  25          
ANACONDA         N/A     55  25  30 S10       30.09S                  
DEER LODGE       N/A     50  28  43 N8        30.13S                  
HAMILTON         N/A     52  34  50 MISG      30.14S                  
PLAINS           N/A     52  34  50 S3        30.12S                  
RONAN            N/A     50  36  57 S7        30.13S                  
$$


SKY/WX - Weather  TMP - Temperature  DP - Dewpoint  RH - Relative Humidity
WIND - Wind Direction/Speed PRES - Barometric Pressure